SWR252 LSZH-LEIB

Flight info

Callsign SWR252
Flight time N/A
Altitude 33000
Route VEBIT T50 ROTOS Z669 ULMES DCT VADAR/N0470F410 DCT GEVEA DCT INCUS DCT BALSI DCT RETNO DCT TUPOX DCT MTG DCT DIVKO DCT VATIR DCT PIVUS DCT SULID DCT DIMIB DCT POS
Aircraft A343/H-SDE2E3FGHIJ4J5M1RWXY/LB1D1

Departure

Time 2026-05-06 10:52
Airport Zürich Airport (LSZH)

Arrival

Time N/A
Airport Ibiza Airport (LEIB)
Time Latitude Longitude Altitude Speed Heading
2026-05-06 10:17 47.44838 8.55882 1401 ft 0 kts 245°
2026-05-06 10:36 47.44842 8.55895 1408 ft 2 kts 245°
2026-05-06 10:37 47.44849 8.55917 1412 ft 2 kts 257°
2026-05-06 10:37 47.44852 8.55940 1409 ft 2 kts 272°
2026-05-06 10:37 47.44850 8.55964 1410 ft 2 kts 299°
2026-05-06 10:37 47.44848 8.55973 1409 ft 2 kts 320°
2026-05-06 10:38 47.44849 8.55969 1409 ft 0 kts 311°
2026-05-06 10:38 47.44844 8.55979 1409 ft 0 kts 338°
2026-05-06 10:38 47.44844 8.55978 1409 ft 1 kts 337°
2026-05-06 10:40 47.44845 8.55978 1403 ft 0 kts 336°
2026-05-06 10:40 47.44848 8.55976 1403 ft 1 kts 336°
2026-05-06 10:40 47.44858 8.55969 1413 ft 2 kts 336°
2026-05-06 10:41 47.44870 8.55961 1409 ft 0 kts 335°
2026-05-06 10:41 47.44890 8.55950 1411 ft 7 kts 342°
2026-05-06 10:41 47.44929 8.55931 1413 ft 4 kts 335°
2026-05-06 10:41 47.44935 8.55924 1413 ft 0 kts 322°
2026-05-06 10:42 47.44937 8.55921 1412 ft 6 kts 320°
2026-05-06 10:42 47.44955 8.55877 1414 ft 0 kts 284°
2026-05-06 10:42 47.44956 8.55858 1415 ft 5 kts 277°
2026-05-06 10:42 47.44958 8.55795 1411 ft 7 kts 266°
2026-05-06 10:43 47.44943 8.55713 1405 ft 6 kts 234°
2026-05-06 10:43 47.44917 8.55710 1404 ft 4 kts 165°
2026-05-06 10:43 47.44881 8.55726 1409 ft 7 kts 162°
2026-05-06 10:44 47.44825 8.55763 1410 ft 0 kts 155°
2026-05-06 10:45 47.44824 8.55764 1410 ft 1 kts 155°
2026-05-06 10:45 47.44807 8.55776 1405 ft 3 kts 153°
2026-05-06 10:45 47.44781 8.55794 1407 ft 5 kts 154°
2026-05-06 10:45 47.44758 8.55811 1407 ft 5 kts 154°
2026-05-06 10:46 47.44723 8.55837 1409 ft 2 kts 154°
2026-05-06 10:46 47.44709 8.55846 1406 ft 5 kts 155°
2026-05-06 10:47 47.44672 8.55858 1407 ft 6 kts 176°
2026-05-06 10:47 47.44636 8.55834 1404 ft 6 kts 218°
2026-05-06 10:47 47.44634 8.55830 1404 ft 0 kts 220°
2026-05-06 10:49 47.44632 8.55828 1405 ft 2 kts 220°
2026-05-06 10:50 47.44591 8.55739 1405 ft 5 kts 248°
2026-05-06 10:50 47.44583 8.55682 1405 ft 6 kts 270°
2026-05-06 10:50 47.44597 8.55653 1406 ft 3 kts 322°
2026-05-06 10:50 47.44616 8.55634 1405 ft 0 kts 329°
2026-05-06 10:51 47.44620 8.55630 1404 ft 2 kts 329°
2026-05-06 10:51 47.44632 8.55621 1406 ft 0 kts 333°
2026-05-06 10:51 47.44636 8.55618 1406 ft 1 kts 333°
2026-05-06 10:51 47.44656 8.55603 1408 ft 13 kts 333°
2026-05-06 10:52 47.44987 8.55373 1409 ft 92 kts 335°
2026-05-06 10:52 47.45772 8.54833 1407 ft 154 kts 334°
2026-05-06 10:52 47.46784 8.54175 2104 ft 162 kts 335°
2026-05-06 10:52 47.47880 8.53417 2790 ft 186 kts 331°
2026-05-06 10:53 47.49127 8.52495 3631 ft 212 kts 330°
2026-05-06 10:53 47.50476 8.51520 4797 ft 218 kts 332°
2026-05-06 10:53 47.51843 8.50503 5627 ft 223 kts 329°
2026-05-06 10:53 47.53040 8.48992 6692 ft 231 kts 306°
2026-05-06 10:54 47.53720 8.46817 7835 ft 237 kts 277°
2026-05-06 10:54 47.53638 8.44430 9166 ft 232 kts 250°
2026-05-06 10:54 47.53031 8.42218 10325 ft 236 kts 241°
2026-05-06 10:54 47.52162 8.40027 10901 ft 261 kts 229°
2026-05-06 10:55 47.50692 8.38262 11313 ft 288 kts 204°
2026-05-06 10:55 47.48696 8.37385 11785 ft 312 kts 191°
2026-05-06 10:55 47.46507 8.36766 12507 ft 325 kts 191°
2026-05-06 10:55 47.44299 8.36153 13077 ft 315 kts 191°
2026-05-06 10:56 47.42196 8.35532 13107 ft 302 kts 195°
2026-05-06 10:56 47.40256 8.34409 13129 ft 300 kts 209°
2026-05-06 10:56 47.38608 8.32584 13136 ft 302 kts 224°
2026-05-06 10:56 47.37332 8.30108 13137 ft 306 kts 238°
2026-05-06 10:57 47.36309 8.27322 13191 ft 309 kts 241°
2026-05-06 10:57 47.35330 8.24504 13660 ft 305 kts 241°
2026-05-06 10:57 47.34404 8.21842 14059 ft 281 kts 241°
2026-05-06 10:57 47.33519 8.19319 14439 ft 275 kts 241°
2026-05-06 10:58 47.32635 8.16819 14806 ft 275 kts 240°
2026-05-06 10:58 47.31747 8.14322 15176 ft 275 kts 240°
2026-05-06 10:58 47.30859 8.11808 15557 ft 277 kts 240°
2026-05-06 10:58 47.29959 8.09276 15936 ft 283 kts 240°
2026-05-06 10:59 47.29001 8.06598 16338 ft 308 kts 240°
2026-05-06 10:59 47.27968 8.03707 16808 ft 328 kts 240°
2026-05-06 10:59 47.26900 8.00639 17326 ft 345 kts 242°
2026-05-06 10:59 47.25879 7.97348 17847 ft 362 kts 244°
2026-05-06 11:00 47.24882 7.93876 18314 ft 373 kts 246°
2026-05-06 11:00 47.23900 7.90311 19126 ft 377 kts 246°
2026-05-06 11:00 47.22925 7.86725 20031 ft 379 kts 246°
2026-05-06 11:00 47.21939 7.83114 20849 ft 382 kts 245°
2026-05-06 11:01 47.20933 7.79468 21625 ft 387 kts 245°
2026-05-06 11:01 47.19901 7.75801 22595 ft 391 kts 244°
2026-05-06 11:01 47.18624 7.72240 23330 ft 395 kts 235°
2026-05-06 11:01 47.17059 7.68927 24166 ft 395 kts 231°
2026-05-06 11:02 47.15401 7.65702 24898 ft 396 kts 229°
2026-05-06 11:02 47.13700 7.62534 25595 ft 396 kts 229°
2026-05-06 11:02 47.11995 7.59417 26310 ft 396 kts 227°
2026-05-06 11:02 47.10244 7.56232 27060 ft 396 kts 228°
2026-05-06 11:03 47.08539 7.53125 27726 ft 396 kts 228°
2026-05-06 11:03 47.06811 7.49967 28375 ft 398 kts 228°
2026-05-06 11:03 47.05077 7.46788 28985 ft 399 kts 228°
2026-05-06 11:03 47.03347 7.43608 29605 ft 400 kts 228°
2026-05-06 11:04 47.01609 7.40409 30135 ft 402 kts 228°
2026-05-06 11:04 46.99856 7.37195 30446 ft 409 kts 228°
2026-05-06 11:04 46.98051 7.33906 30544 ft 419 kts 228°
2026-05-06 11:04 46.96216 7.30569 30899 ft 423 kts 228°
2026-05-06 11:05 46.94368 7.27207 31351 ft 423 kts 229°
2026-05-06 11:05 46.92534 7.23860 31994 ft 420 kts 229°
2026-05-06 11:05 46.90716 7.20540 32597 ft 417 kts 229°
2026-05-06 11:05 46.88894 7.17219 32859 ft 421 kts 229°
2026-05-06 11:06 46.87079 7.13914 32905 ft 412 kts 228°
2026-05-06 11:06 46.83512 7.07430 32908 ft 408 kts 228°
2026-05-06 11:07 46.79945 7.00974 32919 ft 408 kts 228°
2026-05-06 11:07 46.76377 6.94528 32904 ft 408 kts 228°
2026-05-06 11:08 46.72804 6.88089 32906 ft 410 kts 229°
2026-05-06 11:08 46.69193 6.81597 32898 ft 413 kts 229°
2026-05-06 11:09 46.65556 6.75070 33228 ft 419 kts 229°
2026-05-06 11:09 46.63692 6.71879 33652 ft 419 kts 226°
2026-05-06 11:09 46.61688 6.68734 34136 ft 418 kts 225°
2026-05-06 11:09 46.59701 6.65727 34530 ft 418 kts 224°
2026-05-06 11:10 46.57670 6.62682 34905 ft 419 kts 224°
2026-05-06 11:10 46.55647 6.59630 35279 ft 420 kts 225°
2026-05-06 11:10 46.53629 6.56560 35673 ft 420 kts 225°
2026-05-06 11:10 46.51619 6.53478 36048 ft 421 kts 225°
2026-05-06 11:11 46.49607 6.50379 36391 ft 422 kts 225°
2026-05-06 11:11 46.47595 6.47273 36718 ft 423 kts 225°
2026-05-06 11:11 46.45582 6.44166 37099 ft 423 kts 226°
2026-05-06 11:11 46.43555 6.41041 37273 ft 428 kts 226°
2026-05-06 11:12 46.41507 6.37888 37534 ft 430 kts 226°
2026-05-06 11:12 46.39456 6.34735 37893 ft 430 kts 226°
2026-05-06 11:12 46.37402 6.31584 38247 ft 430 kts 226°
2026-05-06 11:12 46.35345 6.28431 38608 ft 431 kts 226°
2026-05-06 11:13 46.33287 6.25279 38863 ft 431 kts 226°
2026-05-06 11:13 46.31228 6.22131 39141 ft 431 kts 226°
2026-05-06 11:13 46.29106 6.19067 39398 ft 431 kts 221°
2026-05-06 11:13 46.26757 6.16386 39671 ft 431 kts 214°
2026-05-06 11:14 46.24170 6.14201 39922 ft 432 kts 206°
2026-05-06 11:14 46.21377 6.12602 40164 ft 433 kts 198°
2026-05-06 11:14 46.18477 6.11608 40390 ft 435 kts 192°
2026-05-06 11:14 46.15490 6.10850 40612 ft 436 kts 191°
2026-05-06 11:15 46.12489 6.10191 40841 ft 437 kts 190°
2026-05-06 11:15 46.06395 6.08930 40938 ft 446 kts 190°
2026-05-06 11:16 46.00264 6.07633 40922 ft 444 kts 190°
2026-05-06 11:16 45.94158 6.06299 40941 ft 443 kts 191°
2026-05-06 11:17 45.88060 6.04952 40940 ft 443 kts 191°
2026-05-06 11:17 45.81963 6.03606 40940 ft 443 kts 191°
2026-05-06 11:18 45.75868 6.02259 40934 ft 443 kts 191°
2026-05-06 11:18 45.69769 6.00912 40961 ft 443 kts 191°
2026-05-06 11:19 45.63672 5.99571 40963 ft 443 kts 191°
2026-05-06 11:19 45.57581 5.98233 40966 ft 443 kts 191°
2026-05-06 11:20 45.51494 5.96900 40958 ft 442 kts 191°
2026-05-06 11:20 45.45415 5.95528 40948 ft 442 kts 193°
2026-05-06 11:21 45.39413 5.93673 40942 ft 441 kts 195°
2026-05-06 11:21 45.33446 5.91681 40934 ft 440 kts 195°
2026-05-06 11:22 45.27476 5.89750 40923 ft 440 kts 194°
2026-05-06 11:22 45.21494 5.87880 40915 ft 440 kts 194°
2026-05-06 11:23 45.15551 5.86044 40922 ft 440 kts 194°
2026-05-06 11:23 45.09565 5.84197 40914 ft 440 kts 194°
2026-05-06 11:24 45.03585 5.82352 40898 ft 440 kts 194°
2026-05-06 11:24 44.97594 5.80511 40924 ft 441 kts 194°
2026-05-06 11:25 44.91603 5.78666 40916 ft 441 kts 194°
2026-05-06 11:25 44.85608 5.76823 40922 ft 441 kts 194°
2026-05-06 11:26 44.79618 5.74988 40913 ft 440 kts 194°
2026-05-06 11:26 44.73643 5.73166 40921 ft 439 kts 194°
2026-05-06 11:27 44.67671 5.71345 40918 ft 439 kts 194°
2026-05-06 11:27 44.62702 5.69831 40922 ft 440 kts 194°
2026-05-06 11:28 44.56705 5.68008 40916 ft 441 kts 194°
2026-05-06 11:28 44.50699 5.66188 40925 ft 442 kts 194°
2026-05-06 11:29 44.44693 5.64372 40916 ft 441 kts 194°
2026-05-06 11:29 44.38718 5.62478 40928 ft 439 kts 199°
2026-05-06 11:30 44.32980 5.59634 40927 ft 437 kts 203°
2026-05-06 11:30 44.27317 5.56548 40913 ft 437 kts 203°
2026-05-06 11:31 44.21706 5.53448 40920 ft 436 kts 203°